TimeAKST,TemperatureF,Dew PointF,Humidity,Sea Level PressureIn,VisibilityMPH,Wind Direction,Wind SpeedMPH,Gust SpeedMPH,PrecipitationIn,Events,Conditions,WindDirDegrees,DateUTC
12:53 AM,37.0,34.0,89,29.79,10.0,Calm,Calm,-,0.00,Rain,Light Rain,0,2013-11-07 09:53:00
1:53 AM,37.9,36.0,93,29.76,10.0,Calm,Calm,-,0.01,,Overcast,0,2013-11-07 10:53:00
3:30 AM,42.8,37.4,81,29.69,10.0,Calm,Calm,-,N/A,,Overcast,0,2013-11-07 12:30:00
3:53 AM,42.1,37.0,82,29.69,10.0,Calm,Calm,-,N/A,,Overcast,0,2013-11-07 12:53:00
4:21 AM,41.0,37.4,87,29.67,10.0,East,3.5,-,0.00,Rain,Light Rain,100,2013-11-07 13:21:00
4:53 AM,42.1,39.0,89,29.65,10.0,East,6.9,-,0.01,Rain,Light Rain,100,2013-11-07 13:53:00
5:07 AM,42.8,39.2,87,29.64,10.0,SE,4.6,-,0.00,,Overcast,130,2013-11-07 14:07:00
5:53 AM,42.1,39.0,89,29.63,10.0,Calm,Calm,-,0.00,Rain,Light Rain,0,2013-11-07 14:53:00
6:53 AM,44.1,42.1,93,29.60,5.0,East,17.3,-,0.04,Rain,Light Rain,100,2013-11-07 15:53:00
7:53 AM,43.0,42.1,97,29.58,4.0,Variable,3.5,-,0.05,Rain,Light Rain,0,2013-11-07 16:53:00
8:53 AM,41.0,39.9,96,29.57,6.0,SSW,4.6,-,0.05,Rain,Light Rain,200,2013-11-07 17:53:00
9:53 AM,42.1,39.9,92,29.56,6.0,WNW,9.2,-,0.05,Rain,Light Rain,300,2013-11-07 18:53:00
10:20 AM,42.8,37.4,81,29.56,6.0,WNW,13.8,23.0,0.04,Rain,Light Rain,300,2013-11-07 19:20:00
10:53 AM,42.1,37.9,85,29.56,6.0,NW,11.5,-,0.06,Rain,Light Rain,320,2013-11-07 19:53:00
11:47 AM,42.8,37.4,81,29.56,10.0,NW,10.4,-,0.01,Rain,Light Rain,310,2013-11-07 20:47:00
11:53 AM,43.0,39.0,86,29.57,10.0,WNW,8.1,-,0.02,Rain,Light Rain,300,2013-11-07 20:53:00
12:53 PM,44.1,37.9,79,29.57,10.0,WNW,11.5,-,0.00,,Overcast,300,2013-11-07 21:53:00
1:53 PM,45.0,37.9,76,29.57,10.0,West,12.7,-,N/A,,Overcast,280,2013-11-07 22:53:00
2:53 PM,43.0,37.9,82,29.57,10.0,West,10.4,-,0.00,,Overcast,280,2013-11-07 23:53:00
3:53 PM,43.0,37.0,80,29.58,10.0,West,21.9,-,N/A,,Overcast,280,2013-11-08 00:53:00
4:53 PM,42.1,35.1,76,29.60,10.0,WNW,20.7,28.8,N/A,,Mostly Cloudy,290,2013-11-08 01:53:00
5:53 PM,39.9,34.0,79,29.63,10.0,WNW,18.4,27.6,0.00,,Mostly Cloudy,290,2013-11-08 02:53:00
6:53 PM,39.0,35.1,86,29.65,10.0,NW,18.4,27.6,0.00,Rain,Light Rain,320,2013-11-08 03:53:00
7:53 PM,39.0,35.1,86,29.68,10.0,WNW,20.7,-,0.03,Rain,Light Rain,290,2013-11-08 04:53:00
8:14 PM,39.2,33.8,81,29.69,10.0,WNW,17.3,27.6,0.00,Rain,Light Rain,300,2013-11-08 05:14:00
8:53 PM,37.9,34.0,86,29.73,9.0,WNW,24.2,32.2,0.01,Rain,Light Rain,300,2013-11-08 05:53:00
9:53 PM,37.0,34.0,89,29.78,9.0,WNW,18.4,32.2,0.04,Rain,Light Rain,290,2013-11-08 06:53:00
10:53 PM,37.9,34.0,86,29.81,10.0,WNW,19.6,26.5,0.02,Rain,Light Rain,290,2013-11-08 07:53:00
11:18 PM,37.4,33.8,87,29.82,10.0,WNW,18.4,27.6,0.01,Rain,Light Rain,300,2013-11-08 08:18:00
11:53 PM,37.9,35.1,89,29.85,10.0,WNW,13.8,24.2,0.03,Rain,Light Rain,300,2013-11-08 08:53:00